Regional Weather Roundup
Issued by NWS

Home | Current Version | Previous Version | Graphics & Text | Print | Product List | Glossary On
Versions: 1 2 3 4 5 6 7 8 9 10 11 12 13 14 15 16 17 18 19 20 21 22 23 24 25 26 27 28 29 30 31 32 33 34 35 36 37 38 39 40 41 42 43 44 45 46 47 48 49 50
000
ASUS43 KTOP 301508
RWRKS

WEATHER ROUNDUP FOR KANSAS
NATIONAL WEATHER SERVICE GOODLAND KS
1000 AM CDT TUE SEP 30 2014

NOTE:  "FAIR" INDICATES FEW OR NO CLOUDS BELOW 12,000 FEET WITH NO
SIGNIFICANT WEATHER AND/OR OBSTRUCTIONS TO VISIBILITY.

KSZ001>006-013>018-027>032-041>047-301600-
NORTHWEST KANSAS

CITY           SKY/WX    TMP DP  RH WIND       PRES   REMARKS
GOODLAND       SUNNY     58  48  69 S8        29.85F
HAYS           CLOUDY    64  57  77 SE9       29.84S
HILL CITY      MOSUNNY   62  56  80 SE3       29.83F
RUSSELL        TSTM      64  61  90 S7        29.83S
$$

KSZ061>065-074>080-084>089-301600-
SOUTHWEST KANSAS

CITY           SKY/WX    TMP DP  RH WIND       PRES   REMARKS
DODGE CITY     CLOUDY    67  56  67 S14G24    29.83F
GARDEN CITY    PTSUNNY   65  58  78 SW6       29.83F
GREAT BEND     CLOUDY    66  57  72 S21       29.83S
LIBERAL        SUNNY     70  57  64 S18       29.85S
PRATT          CLOUDY    64  61  88 S9        29.86F
$$

KSZ066>073-081>083-090>101-301600-
SOUTHEAST KANSAS

CITY           SKY/WX    TMP DP  RH WIND       PRES   REMARKS
CHANUTE        SUNNY     73  64  73 S8        29.94S
COFFEYVILLE    SUNNY     72  63  73 S8        29.93S
HUTCHINSON     CLOUDY    71  59  65 S12       29.87S
MEDICINE LODGE   N/A     71  61  70 S10G18    29.86F
NEWTON         MOSUNNY   72  57  60 S14       29.91S
PARSONS        SUNNY     73  63  70 S8        29.95S
WICHITA INTL   PTSUNNY   74  59  59 S17       29.88S
WICHITA JABRA    N/A     75  59  57 MISG      29.88F
WICHITA MCCONL MOSUNNY   73  60  63 S18       29.89F
WINFIELD       SUNNY     74  61  63 S14G23    29.91F
$$

KSZ007>012-019>026-033>040-048>060-102>105-301600-
NORTHEAST KANSAS

CITY           SKY/WX    TMP DP  RH WIND       PRES   REMARKS
CONCORDIA      LGT RAIN  63  62  97 SE6       29.86F
EMPORIA        SUNNY     71  62  73 S13       29.91S
LAWRENCE       MOSUNNY   71  61  70 SE5       29.92F
MANHATTAN      MOSUNNY   76  61  59 S12       29.87S
MARYSVILLE     CLOUDY    68  61  77 SW3       29.89R
OLATHE IND     MOSUNNY   73  62  68 S8        29.94S
OLATHE EXE     MOSUNNY   71  62  73 S6        29.93R
SALINA         RAIN      67  61  81 S8        29.87S
TOPEKA BILLARD MOSUNNY   73  62  68 S7        29.91S
TOPEKA FORBES  MOSUNNY   73  61  65 S8        29.91S
$$



USA.gov is the U.S. government's official web portal to all federal, state and local government web resources and services.